Home > Weather > Maldonado > Past weeks

Flag for Uruguay Weather for the Past 2 Weeks in Maldonado, Uruguay

Now
50 °F

Sunny.


Feels Like: 47 °F
Forecast: 45 / 58 °F
Wind: 7 mph from Northwest

Location: Capitan Corbeta

Current Time: May 4, 2016 at 11:13:04 AM

Latest Report: May 4, 2016 at 10:00 AM


Visibility: 10 mi

Pressure: 30.15 "Hg

Humidity: 82%

Dew Point: 45 °F

Location of MaldonadoLocation

Historic Weather in Maldonado — Graph

°F

Maldonado Temperature Yesterday

Maximum temperature yesterday: 55 °F (at 12:00 PM)
Minimum temperature yesterday: 45 °F (at 9:00 PM)
Average temperature yesterday: 52 °F

High & Low Weather Summary for the Past Weeks

 TemperatureHumidityPressure
High72 °F (Apr 19, 1:00 PM)94% (Apr 19, 10:00 AM)30.27 "Hg (Apr 19, 10:00 AM)
Low37 °F (May 4, 7:00 AM)48% (May 1, 4:00 PM)29.62 "Hg (Apr 19, 3:00 PM)
Average57 °F76%29.99 "Hg
* Reported Apr 19 10:00 AM — May 4 10:00 AM, Maldonado, Weather by CustomWeather, © 2016

Note: Actual official high and low records may vary slightly from our data, if they occured in-between our weather recording intervals... More about our weather records

Advertising

Maldonado Weather History for the Previous 24 Hours

Scroll right to see more
 ConditionsComfort  
Time TempWeatherWind HumidityBarometerVisibility
10:00 AM
Wed, May 4
50 °FSunny.7 mph82%30.15 "Hg10 mi
9:00 AM45 °FPassing clouds.12 mph87%30.15 "HgN/A
8:00 AM43 °FSunny.8 mph87%30.15 "Hg10 mi
7:00 AM37 °FSunny.6 mph87%30.15 "Hg10 mi
5:00 AM39 °FClear.5 mph87%30.15 "Hg10 mi
4:00 AM39 °FClear.2 mph87%30.15 "Hg10 mi
3:00 AM39 °FClear.3 mph87%30.18 "Hg10 mi
2:00 AM41 °FClear.8 mph87%30.18 "Hg10 mi
9:00 PM
Tue, May 3
45 °FClear.2 mph71%30.21 "Hg10 mi
8:00 PM48 °FPassing clouds.6 mph71%30.21 "HgN/A
7:00 PM48 °FPassing clouds.6 mph71%30.21 "HgN/A
6:00 PM50 °FPassing clouds.6 mph67%30.21 "HgN/A
5:00 PM54 °FPassing clouds.6 mph58%30.21 "HgN/A
4:00 PM54 °FOvercast.12 mph58%30.21 "HgN/A
3:00 PM55 °FOvercast.6 mph59%30.21 "HgN/A
2:00 PM55 °FPartly sunny.9 mph59%30.24 "HgN/A
1:00 PM54 °FPartly sunny.9 mph58%30.24 "HgN/A
12:00 PM55 °FPartly sunny.12 mph55%30.27 "HgN/A
11:00 AM54 °FPartly sunny.12 mph58%30.27 "HgN/A
Weather by CustomWeather, © 2016

See weather overviewHow to use our weather pages